EYESAT-NANO

Last updated on Mon Nov 20 2023 00:03:39 GMT+0000 (Coordinated Universal Time)

1 44877U 19092E 23323.60675137 .13027375 25178-5 10409-2 0 9991 2 44877 97.4113 161.4152 0007817 282.3957 77.6467 16.40064145218319

Satellite not in orbit